Weather reports worldwide

Advertisment
Virac, Philippines (98446): temperature & dewpoint: 28.06.2020 23:00:00 - 04.07.2020 23:00:00 (PHT)Virac, Philippines (98446): wind speed: 28.06.2020 23:00:00 - 04.07.2020 23:00:00 (PHT)Virac, Philippines (98446): wind direction: 28.06.2020 23:00:00 - 04.07.2020 23:00:00 (PHT)Virac, Philippines (98446): reduced air pressure: 28.06.2020 23:00:00 - 04.07.2020 23:00:00 (PHT)Virac, Philippines (98446): visibility: 28.06.2020 23:00:00 - 04.07.2020 23:00:00 (PHT)
Date & Time tt [°C] td [°C] ff [km/h] ff [kn] dd ppp [hPa] vv [km]
04.07.2020 23:00:00 - - - - - - -
04.07.2020 22:00:00 - - - - - - -
04.07.2020 21:00:00 - - - - - - -
04.07.2020 20:00:00 27,7 26,3 4 2 NNW 1011,6 14
04.07.2020 19:00:00 - - - - - - -
04.07.2020 18:00:00 - - - - - - -
04.07.2020 17:00:00 30,4 26,8 7 4 NE 1009,9 20
04.07.2020 16:00:00 - - - - - - -
04.07.2020 15:00:00 - - - - - - -
04.07.2020 14:00:00 30,5 26,8 7 4 E 1010,1 20
04.07.2020 13:00:00 - - - - - - -
04.07.2020 12:00:00 - - - - - - -
04.07.2020 11:00:00 28,1 26,4 7 4 NE 1011,9 20
04.07.2020 10:00:00 - - - - - - -
04.07.2020 09:00:00 - - - - - - -
04.07.2020 08:00:00 26,0 25,6 4 2 NW 1012,1 20
04.07.2020 07:00:00 - - - - - - -
04.07.2020 06:00:00 - - - - - - -
04.07.2020 05:00:00 24,6 24,1 4 2 NW 1011,0 16
04.07.2020 04:00:00 - - - - - - -
04.07.2020 03:00:00 - - - - - - -
04.07.2020 02:00:00 24,8 24,0 4 2 NW 1011,6 16
04.07.2020 01:00:00 - - - - - - -
04.07.2020 00:00:00 - - - - - - -
03.07.2020 23:00:00 26,6 25,3 4 2 NNW 1013,1 16
03.07.2020 22:00:00 - - - - - - -
03.07.2020 21:00:00 - - - - - - -
03.07.2020 20:00:00 28,4 26,6 11 6 SE 1011,8 16
03.07.2020 19:00:00 - - - - - - -
03.07.2020 18:00:00 - - - - - - -
03.07.2020 17:00:00 30,2 27,1 14 8 SSE 1010,3 18
03.07.2020 16:00:00 - - - - - - -
03.07.2020 15:00:00 - - - - - - -
03.07.2020 14:00:00 30,6 27,3 7 4 SSE 1012,0 20
03.07.2020 13:00:00 - - - - - - -
03.07.2020 12:00:00 - - - - - - -
03.07.2020 11:00:00 30,6 27,3 7 4 SSE 1012,0 20
03.07.2020 10:00:00 - - - - - - -
03.07.2020 09:00:00 - - - - - - -
03.07.2020 08:00:00 26,8 25,8 4 2 NNE 1011,9 20
03.07.2020 07:00:00 - - - - - - -
03.07.2020 06:00:00 - - - - - - -
03.07.2020 05:00:00 24,8 24,3 7 4 NW 1010,6 15
03.07.2020 04:00:00 - - - - - - -
03.07.2020 03:00:00 - - - - - - -
03.07.2020 02:00:00 25,4 24,9 7 4 NE 1011,0 8
03.07.2020 01:00:00 - - - - - - -
03.07.2020 00:00:00 - - - - - - -
02.07.2020 23:00:00 26,4 25,9 7 4 N 1011,5 10
02.07.2020 22:00:00 - - - - - - -
02.07.2020 21:00:00 - - - - - - -
02.07.2020 20:00:00 27,6 26,3 7 4 NNE 1010,5 10
02.07.2020 19:00:00 - - - - - - -
02.07.2020 18:00:00 - - - - - - -
02.07.2020 17:00:00 30,8 26,7 7 4 E 1008,1 20
02.07.2020 16:00:00 - - - - - - -
02.07.2020 15:00:00 - - - - - - -
02.07.2020 14:00:00 32,2 27,1 11 6 E 1008,4 20
02.07.2020 13:00:00 - - - - - - -
02.07.2020 12:00:00 - - - - - - -
02.07.2020 11:00:00 31,8 26,9 7 4 SE 1010,1 20
02.07.2020 10:00:00 - - - - - - -
02.07.2020 09:00:00 - - - - - - -
02.07.2020 08:00:00 29,4 26,6 7 4 E 1010,4 20
02.07.2020 07:00:00 - - - - - - -
02.07.2020 06:00:00 - - - - - - -
02.07.2020 05:00:00 24,8 23,7 7 4 NNW 1009,8 10
02.07.2020 04:00:00 - - - - - - -
02.07.2020 03:00:00 - - - - - - -
02.07.2020 02:00:00 25,0 23,8 7 4 NNW 1009,4 10
02.07.2020 01:00:00 - - - - - - -
02.07.2020 00:00:00 - - - - - - -
01.07.2020 23:00:00 26,2 25,0 4 2 NW 1011,4 10
01.07.2020 22:00:00 - - - - - - -
01.07.2020 21:00:00 - - - - - - -
01.07.2020 20:00:00 28,8 26,2 7 4 ESE 1010,2 12
01.07.2020 19:00:00 - - - - - - -
01.07.2020 18:00:00 - - - - - - -
01.07.2020 17:00:00 - - - - - - -
01.07.2020 16:00:00 - - - - - - -
01.07.2020 15:00:00 - - - - - - -
01.07.2020 14:00:00 31,0 27,4 11 6 SE 1009,8 20
01.07.2020 13:00:00 - - - - - - -
01.07.2020 12:00:00 - - - - - - -
01.07.2020 11:00:00 - - - - - - -
01.07.2020 10:00:00 - - - - - - -
01.07.2020 09:00:00 - - - - - - -
01.07.2020 08:00:00 28,0 26,8 11 6 E 1010,4 18
01.07.2020 07:00:00 - - - - - - -
01.07.2020 06:00:00 - - - - - - -
01.07.2020 05:00:00 24,4 23,6 7 4 NW 1009,7 10
01.07.2020 04:00:00 - - - - - - -
01.07.2020 03:00:00 - - - - - - -
01.07.2020 02:00:00 25,2 23,8 7 4 NW 1010,5 10
01.07.2020 01:00:00 - - - - - - -
01.07.2020 00:00:00 - - - - - - -
30.06.2020 23:00:00 26,0 24,4 7 4 NW 1011,9 10
30.06.2020 22:00:00 - - - - - - -
30.06.2020 21:00:00 - - - - - - -
30.06.2020 20:00:00 29,0 26,1 7 4 E 1010,4 12
30.06.2020 19:00:00 - - - - - - -
30.06.2020 18:00:00 - - - - - - -
30.06.2020 17:00:00 31,2 26,8 7 4 E 1008,8 20
30.06.2020 16:00:00 - - - - - - -
30.06.2020 15:00:00 - - - - - - -
30.06.2020 14:00:00 31,4 28,1 7 4 SE 1008,9 20
30.06.2020 13:00:00 - - - - - - -
30.06.2020 12:00:00 - - - - - - -
30.06.2020 11:00:00 30,8 25,9 11 6 E 1011,1 20
30.06.2020 10:00:00 - - - - - - -
30.06.2020 09:00:00 - - - - - - -
30.06.2020 08:00:00 27,4 25,8 7 4 NW 1012,4 18
30.06.2020 07:00:00 - - - - - - -
30.06.2020 06:00:00 - - - - - - -
30.06.2020 05:00:00 25,0 24,2 7 4 NW 1010,4 9
30.06.2020 04:00:00 - - - - - - -
30.06.2020 03:00:00 - - - - - - -
30.06.2020 02:00:00 25,8 24,7 7 4 NW 1010,4 9
30.06.2020 01:00:00 - - - - - - -
30.06.2020 00:00:00 - - - - - - -
29.06.2020 23:00:00 27,2 25,6 7 4 NW 1012,0 9
29.06.2020 22:00:00 - - - - - - -
29.06.2020 21:00:00 - - - - - - -
29.06.2020 20:00:00 28,2 26,4 7 4 NNE 1011,5 18
29.06.2020 19:00:00 - - - - - - -
29.06.2020 18:00:00 - - - - - - -
29.06.2020 17:00:00 30,6 26,7 7 4 ESE 1009,5 20
29.06.2020 16:00:00 - - - - - - -
29.06.2020 15:00:00 - - - - - - -
29.06.2020 14:00:00 30,8 26,4 7 4 NE 1009,4 20
29.06.2020 13:00:00 - - - - - - -
29.06.2020 12:00:00 - - - - - - -
29.06.2020 11:00:00 30,6 25,9 7 4 ESE 1010,4 20
29.06.2020 10:00:00 - - - - - - -
29.06.2020 09:00:00 - - - - - - -
29.06.2020 08:00:00 28,6 26,0 7 4 SW 1012,2 20
29.06.2020 07:00:00 - - - - - - -
29.06.2020 06:00:00 - - - - - - -
29.06.2020 05:00:00 25,4 24,9 7 4 NW 1011,4 15
29.06.2020 04:00:00 - - - - - - -
29.06.2020 03:00:00 - - - - - - -
29.06.2020 02:00:00 26,0 25,5 4 2 SW 1011,3 10
29.06.2020 01:00:00 - - - - - - -
29.06.2020 00:00:00 - - - - - - -
28.06.2020 23:00:00 26,4 25,9 4 2 SSW 1012,6 10

tt = temperature
td = dewpoint
ff = wind speed
dd = wind direction
ppp = reduced air pressure
vv = visibility

Next stations